Погода Чимбай

Погода Чимбай : погода сейчас, прогноз погоды и архив. Всё, что Вы хотите узнать о погоде Чимбай!

Хотите узнать прогноз погоды Чимбай? Тогда Вам сюда: Погода Чимбай

Поиск расширенной информации на нашем сайте:

Другие новости

Новости СМИ2

Главная страница сайта

Новости сайта

03.07.2017

Напоминаем, что на нашем специализированном сайте Метеоцентр.Азия вы можете получить высокодетализированные автоматические прогнозы погоды по пунктам России, СНГ и мира в авиационном формате (включающие направление и скорость ветра, видимость, явления погоды, количество и форму облачности, нижнюю и верхнюю границу облачности).


Погода Чимбай - сегодня

Время (UTC), дата Ветер
(°,м/с) 
Видим.   Явления Облачность Т
(°С)
Тd
(°С)
f(%) Тe
(°С)
Pmin
(гПа)
dP
(гПа)
Po
(мм)
O2
(г/м3)
Тmin Tmax R s Состояние
почвы
09 15.06.18 030 (СВ) 20000 м    ясно 
+32.2 +0.6 13 +32  1013.6  -1.5  755  272           
12 15.06.18 180 (Ю) 20000 м    ясно 
+33.1 +1.7 14 +33  1012.4  -1.1  754  271           
15 15.06.18 330 (СЗ) 20000 м    ясно 
+29.8 +5.5 22 +30  1012.9  0.3  754  273    +33.5       
18 15.06.18 050 (СВ) н/о    ясно 
+23.2 +5 31 +23  1013.9  0.8  755  280    +33.5       
21 15.06.18 010 (С) н/о    ясно 
+20 +5.1 38 +20  1013.1  -0.8  754  282           
00 16.06.18 040 (СВ) н/о    ясно 
+14.2 +3.6 49 +15  1012.8  -0.4  754  288           
06 16.06.18 140 (ЮВ) 20000 м    ясно 
+32.7 +5.6 18 +33  1010.4  -2.4  752  270  +13.6         
09 16.06.18 360 (С) 20000 м    ясно 
+35.2 +3.2 14 +35  1008.8  -1.6  751  268           
12 16.06.18 030 (СВ) 20000 м    ясно 
+35.5 +3.2 13 +36  1007.4  -1.4  750  267           
15 16.06.18 320 (СЗ) 20000 м    ясно 
+32.2 +6.5 20 +32  1006.9  -0.5  750  269    +36.8       
18 16.06.18 340 (С) н/о    ясно 
+23.8 +7.4 35 +24  1006.2  -1  749  276    +36.8       
21 16.06.18 320 (СЗ) н/о    ясно 
+18.5 +8 50 +20  1005.1  -1.2  748  281           
00 17.06.18 тихо ()   н/о    ясно 
+15.8 +6.8 55 +16  1004.7  -0.5  748  284           
03 17.06.18 тихо ()   20000 м    ясно 
+25.2 +10.7 40 +27  1003.9  -0.6  747  274           
06 17.06.18 220 (ЮЗ) 20000 м    ясно 
+33.6 +5.5 17 +34  1004.1  0.6  748  267  +15.6         
09 17.06.18 240 (ЮЗ) 20000 м    ясно 
+36.3 +5.8 15 +36  1003.5  -0.6  747  265           
12 17.06.18 290 (З) 20000 м    3/0 средняя 
[Ac trans]
+38 +6.4 14 +38  1002  -1.3  746  263           
15 17.06.18 170 (Ю) 20000 м    3/0 средняя 
[Ac trans]
+33 +8.1 21 +33  1001.9  -0.4  746  267    +38.5       
18 17.06.18 170 (Ю) н/о    3/0 средняя 
[Ac trans]
+25.6 +5.8 28 +26  999.5  -2.5  744  273    +38.5       
21 17.06.18 360 (С) н/о    ясно 
+23.4 +6.2 33 +23  1000.5  745  275           
00 18.06.18 030 (СВ) н/о    8/8 600 м 
[Sc]
+19.4 +8.2 48 +21  999.6  -1  744  279           
03 18.06.18 050 (СВ) 20000 м    9/5 600 м средняя 
[Sc|Ac trans]
+22.3 +9.7 45 +23  1001.7  2.2  746  276           
06 18.06.18 030 (СВ) 20000 м    9/0 средняя, верхняя 
[Ac trans|Ci sp]
+28.2 +9.5 31 +29  1001  -0.6  745  271  +19.2         
09 18.06.18 040 (СВ) 20000 м    9/6 600 м средняя 
[Sc|Ac trans]
+32 +8.4 23 +32  1001.3  0.4  746  268           
12 18.06.18 010 (С) 20000 м    9/6 600 м кучево-дожд., средняя, верхняя 
[Cb cap|Ac trans|Ci sp]
+32.2 +7.3 21 +32  1001.3  746  268           
Время (UTC), дата Ветер
(°,м/с) 
Видим.   Явления Облачность Т
(°С)
Тd
(°С)
f(%) Тe
(°С)
Pmin
(гПа)
dP
(гПа)
Po
(мм)
O2
(г/м3)
Тmin Tmax R s Состояние
почвы

Для получения пояснительной информации подведите курсор к названию столбца.

ПОГОДА Чимбай - архив

Всё, что Вы хотите узнать о погоде Чимбай - удобно и подробно!

Выберите нужную дату (начиная с 1 января 2015* года) и нажмите кнопку "Найти".
Будут отображены архивные сводки погоды по пункту Чимбай, начиная с указанной даты.


Отображать данные в формате CSV (для использования в таблицах Excel)


Внимание! Наш архив погоды предназначен исключительно для личного некоммерческого использования в познавательных целях. Если Вам необходимы официальные справки о состоянии погоды (для производственных, юридических, коммерческих и т.п. целей), обращайтесь в органы Росгидромета.

*Примечание: данная дата относится к архиву по метеостанциям СССР (Россия, СНГ, Балтия).
Архив по метеостанциям Зарубежной Европы и Азии (кроме Китая) хранится 10 дней, по другим регионам земного шара (Китай, Африка, Америка, Австралия, Океания) - 1 день.

Чимбай - район местоположения метеостанции


Название, широта, долгота, высота метеостанции:
Чимбай 42.9°ш. 59.8°д. 66 м над ур. моря [Узбекистан]

Дополнительная информация

В oтличие oт бoльшинства пoгoдных сайтoв мы публикуем пoдрoбную метеoинфoрмацию в детальнoм прoфессиoнальнoм фoрмате.

Характеристики температуры и влажнoсти вoздуха измеряются на высoте 2 м в тени вдали oт зданий и деревьев.
Скoрoсть ветра измеряется на высoте 10 м (на урoвне рoста челoвека скoрoсть ветра ниже в 1.5-2 раза). Если метеoстанция нахoдится в гoрoде или в лесу, тo скoрoсть ветра занижена на 2-4 м/с пo сравнению с oткрытым местoм. Скoрoсть ветра над акватoриями крупных рек и oзёр, а также на вершинах хoлмoв на 2-5 м/с выше, чем в oбычных услoвиях.
Атмoсфернoе давление в разных тoчках местнoсти мoжет значительнo oтличаться oт давления на метеoстанции, в зависимoсти oт услoвий рельефа (при пoдъёме на 10 м давление пoнижается примернo на 1 мм рт.ст.).